OE5ERN-10 Weather Reports


time (UTC)temp
F
wind
direction
speed
knots
gust
knots
rain 1hr
in
rain 24hr
in
rain mn
in
humidity
%
barometer
mb
20260507151028 71 247 0.0 2.6 0.00 0.00 0.00 43 1017.0
20260507145528 71 225 1.7 5.2 0.00 0.00 0.00 43 1016.9
20260507144028 71 225 0.9 1.7 0.00 0.00 0.00 42 1017.0
20260507142528 72 247 2.6 11.3 0.00 0.00 0.00 41 1017.0
20260507141028 72 292 4.3 7.0 0.00 0.00 0.00 41 1016.9
20260507135528 73 247 1.7 4.3 0.00 0.00 0.00 40 1016.8
20260507134028 73 247 10.4 10.4 0.00 0.00 0.00 39 1016.8
20260507132528 73 202 0.0 3.5 0.00 0.00 0.00 39 1016.7
20260507131028 73 292 3.5 3.5 0.00 0.00 0.00 40 1016.6
20260507125528 72 225 6.1 6.1 0.00 0.00 0.00 41 1016.7
20260507124028 73 292 4.3 4.3 0.00 0.00 0.00 40 1016.6
20260507122528 73 270 8.7 8.7 0.00 0.00 0.00 40 1016.3
20260507121028 74 202 0.9 2.6 0.00 0.00 0.00 39 1016.4
20260507115528 74 135 2.6 5.2 0.00 0.00 0.00 39 1016.7
20260507114028 72 292 5.2 7.8 0.00 0.00 0.00 41 1016.9
20260507112528 72 292 13.9 13.9 0.00 0.00 0.00 40 1016.9
20260507111028 74 270 11.3 11.3 0.00 0.00 0.00 39 1016.9
20260507105528 75 292 5.2 5.2 0.00 0.00 0.00 38 1017.0
20260507104028 75 247 5.2 5.2 0.00 0.00 0.00 38 1017.0
20260507102528 73 0 3.5 3.5 0.00 0.00 0.00 39 1017.1
20260507101028 75 270 3.5 10.4 0.00 0.00 0.00 37 1017.1
20260507095528 76 225 2.6 7.8 0.00 0.00 0.00 35 1017.3
20260507094028 80 202 1.7 7.0 0.00 0.00 0.00 34 1017.1
20260507092529 82 292 7.8 12.2 0.00 0.00 0.00 33 1017.1
20260507091029 77 292 0.9 12.2 0.00 0.00 0.00 35 1017.1
20260507085529 83 315 9.6 9.6 0.00 0.00 0.00 32 1017.1
20260507084029 84 292 1.7 5.2 0.00 0.00 0.00 32 1017.0
20260507082529 82 247 7.0 7.0 0.00 0.00 0.00 33 1016.8
20260507081029 86 292 0.9 10.4 0.00 0.00 0.00 29 1016.7
20260507075529 87 247 1.7 3.5 0.00 0.00 0.00 31 1016.5
20260507074029 88 270 12.2 12.2 0.00 0.00 0.00 31 1016.4
20260507072529 85 337 1.7 7.0 0.00 0.00 0.00 32 1016.5
20260507071029 84 292 0.0 4.3 0.00 0.00 0.00 33 1016.5
20260507065529 85 337 4.3 4.3 0.00 0.00 0.00 33 1016.6
20260507064029 88 270 0.9 12.2 0.00 0.00 0.00 32 1016.7
20260507062529 87 292 2.6 2.6 0.00 0.00 0.00 34 1016.7
20260507061029 87 247 1.7 1.7 0.00 0.00 0.00 35 1016.7
20260507055529 75 247 0.0 4.3 0.00 0.00 0.00 50 1016.7
20260507054029 64 270 0.0 1.7 0.00 0.00 0.00 65 1016.6
20260507052529 57 315 0.0 0.0 0.00 0.00 0.00 78 1016.4
20260507051029 53 315 0.0 0.0 0.00 0.00 0.00 80 1016.4
20260507045529 50 292 0.0 0.0 0.00 0.00 0.00 82 1016.3
20260507044029 49 292 1.7 1.7 0.00 0.00 0.00 81 1016.0
20260507042529 48 292 0.0 0.0 0.00 0.00 0.00 81 1016.1
20260507041029 49 270 0.0 0.0 0.00 0.00 0.00 80 1015.7
20260507035529 49 180 0.0 0.0 0.00 0.00 0.00 80 1015.7
20260507034029 50 180 0.9 0.9 0.00 0.00 0.00 80 1015.5
20260507032529 49 180 1.7 1.7 0.00 0.00 0.00 80 1015.3
20260507031029 49 270 0.0 0.0 0.00 0.00 0.00 79 1015.2
20260507025529 49 247 0.0 0.0 0.00 0.00 0.00 79 1015.1
20260507024030 50 292 0.0 0.0 0.00 0.00 0.00 78 1015.1
20260507022529 50 247 0.9 0.9 0.00 0.00 0.00 78 1015.1
20260507021029 50 247 0.0 0.0 0.00 0.00 0.00 77 1015.1
20260507015529 50 292 0.0 0.0 0.00 0.00 0.00 77 1015.1
20260507014029 51 292 0.0 0.0 0.00 0.00 0.00 75 1014.9
20260507012529 53 270 0.0 0.0 0.00 0.00 0.00 75 1014.9
20260507011029 53 270 1.7 6.1 0.00 0.00 0.00 75 1014.8
20260507005529 54 292 1.7 1.7 0.00 0.00 0.00 75 1014.6
20260507004029 53 270 5.2 5.2 0.00 0.00 0.00 75 1014.5
20260507002529 54 292 0.0 0.0 0.00 0.00 0.00 74 1014.5
20260507001029 54 270 0.0 1.7 0.00 0.00 0.00 74 1014.7
20260506235529 55 270 0.0 0.0 0.00 0.00 0.00 75 1014.7
20260506234029 55 225 1.7 1.7 0.00 0.00 0.00 75 1014.5
20260506232529 55 247 1.7 1.7 0.00 0.00 0.00 74 1014.4
20260506231029 55 247 2.6 5.2 0.00 0.00 0.00 75 1014.4
20260506225529 55 225 1.7 5.2 0.00 0.00 0.00 75 1014.0
20260506224029 56 270 3.5 4.3 0.00 0.00 0.00 75 1013.7
20260506222529 56 270 6.1 6.1 0.00 0.00 0.00 76 1013.7
20260506221029 56 247 0.9 8.7 0.00 0.00 0.00 76 1013.4
20260506215529 56 270 0.0 1.7 0.00 0.00 0.00 76 1013.0
20260506214029 56 202 2.6 2.6 0.00 0.00 0.00 77 1013.0
20260506212529 57 247 4.3 4.3 0.00 0.00 0.00 77 1012.8
20260506211030 57 247 0.0 1.7 0.00 0.00 0.00 77 1012.6
20260506205530 57 292 7.0 7.0 0.00 0.00 0.00 78 1012.2
20260506204030 58 270 9.6 9.6 0.00 0.00 0.00 79 1012.1
20260506202530 57 292 3.5 7.8 0.00 0.00 0.00 78 1011.9
20260506201030 57 270 3.5 3.5 0.00 0.00 0.00 76 1011.4
20260506195530 58 292 1.7 1.7 0.00 0.00 0.00 73 1011.0
20260506194030 60 270 0.9 12.2 0.00 0.00 0.00 69 1010.7
20260506192530 62 315 3.5 5.2 0.00 0.00 0.00 60 1010.2
20260506191030 62 337 7.0 7.0 0.00 0.00 0.00 56 1009.1
20260506185530 63 0 8.7 8.7 0.00 0.04 0.00 56 1008.4
20260506184030 64 315 8.7 8.7 0.00 0.04 0.00 56 1008.0
20260506182530 67 0 13.0 13.0 0.00 0.04 0.00 51 1007.9
20260506181030 71 270 13.9 14.8 0.00 0.04 0.00 45 1007.5
20260506175530 71 202 0.0 0.0 0.00 0.04 0.00 40 1006.6
20260506174030 72 112 1.7 2.6 0.00 0.04 0.00 40 1006.1
20260506172530 73 157 1.7 3.5 0.00 0.04 0.00 39 1005.7
20260506171030 75 90 4.3 4.3 0.00 0.04 0.00 37 1005.1
20260506165530 78 90 1.7 3.5 0.00 0.04 0.00 33 1005.1
20260506164030 80 112 1.7 1.7 0.00 0.04 0.00 33 1005.3
20260506162530 79 112 0.0 4.3 0.00 0.04 0.00 34 1005.8
20260506161030 79 135 2.6 5.2 0.00 0.04 0.00 33 1005.7
20260506155530 80 112 2.6 8.7 0.00 0.04 0.00 34 1006.0
20260506154030 80 135 7.0 7.0 0.00 0.04 0.00 35 1006.1
20260506152530 80 112 1.7 5.2 0.00 0.04 0.00 35 1006.3